Probability
0 0 0 0 1 1 0 0 0 2 5 8 10 13 17 17 16 14 14 14 15 16 15 12 10 11 13 17 21 25 27 26 24 22 21 20 20 19 17 15 14 14 15 15
0 0 0 0 1 2 1 0 1 3 6 8 9 12 15 17 17 15 13 13 15 17 16 13 12 14 17 19 21 25 27 26 25 24 22 20 19 17 15 14 13 13 14 14
0 0 0 0 1 1 1 1 3 5 8 10 11 12 16 19 18 17 15 14 15 16 15 12 14 19 21 22 23 26 27 27 26 25 23 21 18 16 14 13 13 13 13 13
0 0 0 0 1 2 3 4 6 7 10 14 15 17 20 21 20 18 18 18 16 15 13 13 17 21 24 26 28 30 31 30 28 25 23 21 19 17 15 15 15 14 14 14
0 0 0 1 3 6 8 8 8 9 12 16 17 18 19 19 18 18 19 20 19 17 16 18 21 24 27 30 32 33 33 32 29 25 23 22 20 18 16 15 16 16 16 15
0 1 2 4 7 10 10 9 8 9 12 13 13 14 15 15 15 17 20 21 21 20 22 25 26 27 29 30 31 31 30 31 29 27 25 24 22 19 17 17 17 18 17 16
1 2 4 6 8 8 8 8 9 10 11 10 9 11 14 15 16 19 21 23 24 25 27 28 28 28 28 28 28 27 27 28 29 27 26 25 23 20 19 18 18 18 18 17
0 2 4 5 6 6 6 8 11 12 12 10 10 11 13 15 19 22 24 25 27 28 28 28 27 28 28 27 26 25 25 26 27 27 27 26 24 22 19 18 17 17 18 18
0 2 4 4 5 6 7 9 12 12 11 10 11 12 12 15 20 24 25 26 27 28 28 28 27 27 26 25 24 23 23 23 25 26 26 25 24 22 20 17 16 16 16 16
1 3 4 5 5 6 8 9 9 9 9 10 10 11 12 15 20 24 25 24 24 24 24 25 25 24 23 22 21 21 21 21 23 24 23 21 20 20 18 16 16 16 16 15
2 3 3 4 5 5 6 7 8 9 10 11 11 11 12 14 18 21 22 23 21 18 18 21 22 22 22 23 22 21 20 20 21 21 19 17 15 15 13 12 13 14 14 13
2 1 1 3 3 3 4 7 9 10 12 12 12 11 12 14 16 18 20 22 21 16 14 17 20 20 22 24 25 23 22 21 19 18 17 15 14 12 10 8 8 9 8 8
2 1 0 1 2 3 5 8 10 11 12 13 13 13 13 14 16 18 19 21 21 18 16 17 19 20 21 24 26 25 24 23 19 16 15 13 12 11 9 8 7 6 4 2
1 0 0 1 2 3 5 9 11 12 13 13 12 12 12 13 14 15 16 19 21 20 19 18 20 22 22 23 24 25 25 24 20 16 15 12 9 10 10 9 8 7 4 2
0 0 0 1 2 2 5 8 11 12 12 12 11 10 9 8 8 9 12 15 18 19 18 18 20 21 22 22 23 23 23 20 17 16 14 10 8 8 10 12 11 8 6 5
0 0 0 1 2 3 5 8 9 10 10 10 10 8 5 3 3 5 7 11 13 12 12 14 16 18 19 19 20 20 17 14 13 14 11 8 7 8 9 11 12 10 8 7
0 0 1 2 4 4 4 5 6 7 8 9 9 7 3 1 1 2 4 6 8 8 8 9 12 14 15 16 16 15 12 10 11 12 10 7 7 7 8 9 11 10 9 9
0 0 1 2 4 3 3 3 4 4 5 6 6 4 3 2 2 2 3 4 5 6 6 7 8 11 12 12 12 13 12 11 10 10 8 6 6 6 7 8 9 9 9 9
1 0 0 1 2 3 3 3 3 3 3 3 2 2 3 3 3 3 2 3 5 5 5 5 6 8 9 9 10 11 12 11 8 6 4 4 4 4 5 7 8 8 8 9
2 1 1 1 1 3 3 3 3 3 3 2 1 1 1 2 3 3 3 3 4 4 4 5 6 6 6 7 7 8 10 9 7 4 2 1 1 2 3 4 5 5 8 9
3 3 2 1 1 2 3 3 3 3 3 1 0 0 0 1 1 2 2 2 2 2 3 5 5 4 4 5 6 7 7 8 6 4 3 1 1 1 1 2 2 3 6 9
2 3 2 1 0 1 3 3 3 3 2 1 0 0 0 0 0 1 1 1 1 2 3 4 4 3 3 4 5 6 6 6 5 4 4 4 3 1 0 1 1 1 3 5
1 1 2 1 1 1 3 3 3 3 1 0 0 0 0 0 0 0 0 0 0 2 3 3 3 3 3 3 4 3 3 3 4 5 5 5 4 2 1 0 0 1 2 2
0 0 1 2 2 3 3 3 3 2 1 0 0 0 0 0 0 0 0 0 0 1 3 3 3 2 3 3 2 1 1 1 2 4 5 4 4 3 1 0 1 1 1 0
0 1 2 3 3 3 3 3 3 1 0 0 0 0 1 1 1 1 0 0 0 1 3 2 1 1 1 2 1 0 0 0 1 2 3 3 3 2 1 0 1 1 0 0
1 2 3 3 3 3 3 3 2 1 0 0 0 1 2 2 3 2 1 1 1 2 3 2 0 0 0 0 0 0 0 0 0 0 1 3 3 2 1 0 0 0 0 0
3 3 3 3 3 3 3 3 1 0 0 0 1 2 2 2 3 2 2 2 2 3 3 1 0 0 0 0 0 0 0 0 0 0 1 2 3 2 1 0 0 0 0 0
Wind_Speed
4 4 2 2 4 2 3 6 7 7 7 7 7 8 8 7 8 7 7 7 8 8 7 6 7 7 7 7 7 7 7 6 6 5 4 3 3 3 3 3 3 2 2 2
2 2 2 2 3 2 2 3 4 5 3 4 3 3 4 6 8 7 7 8 8 8 8 7 8 7 7 7 7 7 7 6 5 5 4 4 3 3 3 3 2 2 2 2
2 4 3 3 3 1 1 1 4 5 5 2 2 3 4 6 7 7 7 7 8 8 8 8 8 8 8 7 7 7 6 6 5 5 5 4 4 3 3 4 3 3 3 3
1 2 4 7 1 3 5 3 3 3 4 5 5 4 3 4 6 6 7 6 6 6 6 6 6 5 5 5 6 6 6 5 5 5 5 4 4 4 4 3 3 3 4 4
3 2 5 5 2 1 3 2 3 3 3 4 4 5 4 3 2 4 5 5 5 5 5 5 6 6 6 5 5 5 5 5 5 5 5 5 5 5 4 3 3 3 3 4
3 3 5 5 6 1 6 1 3 3 3 3 5 4 2 2 1 2 4 4 4 4 5 5 5 6 6 5 4 5 5 5 5 5 5 5 4 4 3 3 3 3 3 3
3 3 5 6 7 4 4 5 3 2 3 4 3 4 4 1 1 1 3 4 5 5 4 4 5 6 6 5 4 4 4 4 3 4 5 5 4 3 3 3 3 3 3 3
3 3 5 6 4 3 4 3 2 2 3 4 4 3 2 2 2 2 3 3 5 5 4 3 4 5 5 4 4 3 3 3 3 3 4 3 3 3 3 3 3 3 3 3
5 5 5 1 1 2 3 3 2 2 3 5 5 3 3 2 2 2 2 3 3 4 4 3 3 5 5 4 4 4 3 3 2 2 2 3 3 3 3 3 3 3 3 3
0 1 2 2 3 3 3 2 2 3 3 4 4 3 3 2 2 2 1 2 2 3 3 2 3 4 4 4 4 4 3 2 2 2 3 3 3 3 3 3 3 3 4 4
2 3 4 4 3 3 4 5 5 5 5 4 4 3 3 2 1 1 1 1 2 2 2 1 2 2 2 3 4 3 3 3 2 3 3 3 3 3 4 4 5 6 5 4
4 4 2 3 3 2 3 2 2 3 4 3 3 2 2 1 0 1 2 1 2 2 2 1 1 2 2 3 4 4 3 3 3 2 2 2 2 2 2 4 5 8 8 6
3 3 2 3 2 2 2 1 0 2 2 2 1 2 2 1 0 1 1 1 2 2 3 2 2 2 2 2 3 4 4 3 3 2 3 3 3 3 2 3 3 4 6 7
2 1 2 3 3 2 2 2 1 1 1 2 1 1 1 1 1 1 1 2 2 2 1 1 2 2 2 2 3 3 3 3 3 3 3 3 4 3 3 3 2 3 3 5
4 2 3 3 2 2 2 2 1 1 1 1 1 1 1 1 1 1 2 1 1 1 0 1 1 3 2 2 2 2 2 2 2 2 3 3 3 3 3 3 3 2 1 2
4 2 2 1 2 2 2 1 1 1 1 1 1 1 1 0 0 1 1 0 1 1 2 1 2 3 2 2 2 2 2 4 3 2 2 2 2 2 2 2 3 3 3 3
3 3 2 2 1 2 1 1 1 1 1 2 2 1 1 1 2 2 2 1 1 2 2 2 3 3 2 2 2 2 2 3 4 2 2 2 2 2 3 3 3 3 4 4
3 4 3 3 2 1 1 1 0 0 0 1 1 1 0 0 1 3 3 1 1 2 2 3 3 2 2 2 2 2 2 2 2 2 2 2 2 2 2 2 3 3 2 2
2 2 2 2 3 2 1 0 0 1 0 1 1 0 1 2 2 3 2 1 1 3 4 4 4 3 2 3 2 2 2 2 1 1 1 2 2 2 2 2 2 2 2 2
1 1 1 1 1 1 1 1 0 0 1 0 0 1 2 2 2 2 2 2 3 4 4 3 3 3 3 2 2 1 2 2 2 2 1 1 2 2 2 2 3 2 2 2
1 1 1 0 0 0 0 1 1 1 1 1 1 2 3 3 3 2 1 3 5 4 4 4 3 2 2 2 2 1 2 2 2 2 2 2 2 2 2 2 2 3 3 2
1 1 2 2 1 0 1 1 1 1 1 1 2 2 2 3 3 3 2 3 4 4 2 2 2 3 3 2 1 1 1 1 2 2 2 2 2 2 2 2 2 2 2 2
0 0 0 1 1 1 2 2 1 1 1 1 2 2 2 3 2 2 3 3 3 3 2 2 2 3 3 2 1 1 2 2 2 2 2 2 2 1 1 1 1 1 1 1
0 1 1 1 0 1 2 3 2 2 2 2 2 2 2 2 2 2 3 3 3 3 2 2 2 2 2 1 1 1 1 1 1 1 1 1 1 1 1 1 0 0 1 1
0 1 1 0 0 1 2 2 2 2 2 1 2 2 2 2 2 2 2 2 2 1 1 1 2 2 1 0 1 1 1 1 1 0 0 0 0 0 0 0 0 0 1 1
0 1 1 1 2 2 2 1 1 1 1 1 2 2 2 2 1 1 1 1 1 0 1 1 1 0 0 0 1 1 1 0 0 0 0 0 0 0 1 1 1 1 1 1
0 1 1 1 1 1 1 0 1 1 1 0 1 1 1 1 1 2 2 1 1 1 1 1 1 1 0 0 0 0 0 0 0 0 0 0 0 0 0 1 0 0 0 0
Wind_Direction
226 230 211 247 270 250 178 179 177 207 198 216 207 187 172 155 147 151 159 163 164 166 169 171 170 170 169 173 173 170 168 175 186 189 186 185 182 186 190 191 197 199 198 205
325 317 10 330 303 283 211 181 162 144 204 235 204 142 137 149 148 160 168 171 170 167 164 168 174 175 172 173 173 166 168 177 178 178 176 177 181 182 183 193 200 193 203 207
271 305 24 298 265 230 137 87 147 170 213 171 96 113 152 157 151 160 169 169 171 173 175 177 180 174 173 177 171 166 169 172 174 178 180 186 187 182 196 203 201 203 212 211
193 32 228 241 262 97 103 53 63 128 154 149 154 165 143 134 151 170 168 165 171 173 174 179 176 166 158 155 159 162 164 171 175 176 183 187 185 193 208 208 203 211 216 217
125 183 261 290 323 73 109 26 22 95 114 124 115 87 45 39 116 164 160 157 162 159 161 161 164 161 149 153 159 162 168 176 177 173 179 187 194 202 205 204 213 216 214 212
143 167 222 258 298 285 108 74 322 87 116 130 107 104 258 310 50 120 134 130 129 127 124 138 153 150 144 156 164 181 186 186 188 180 181 191 199 203 204 203 213 212 220 216
168 193 253 279 302 37 111 219 271 136 137 113 127 177 199 160 76 95 125 131 127 123 130 149 149 143 150 161 186 194 182 173 180 194 194 192 192 198 197 201 202 211 224 231
157 175 249 304 10 94 197 206 182 102 99 94 99 94 94 97 101 98 103 118 131 134 139 139 145 145 157 180 190 170 166 175 186 189 211 192 187 199 199 192 199 217 225 245
182 205 233 280 159 202 152 131 126 111 109 109 100 93 80 65 78 85 101 110 127 140 134 135 147 153 175 190 170 157 155 174 190 177 216 196 186 203 211 199 202 218 218 230
339 271 298 3 33 37 63 89 83 102 106 99 107 110 93 64 58 71 77 105 106 119 132 160 173 174 185 183 165 159 167 178 175 179 213 209 199 200 204 206 208 219 222 229
279 302 349 354 12 44 42 51 59 66 78 84 96 99 104 86 92 129 112 95 106 127 148 193 177 170 178 169 156 166 180 185 191 195 204 212 215 213 215 219 210 209 219 215
238 257 242 280 315 18 54 52 82 76 59 69 91 103 94 94 166 153 141 132 123 140 175 201 179 185 184 170 161 167 186 201 204 213 211 212 221 260 253 234 234 224 221 216
231 268 250 264 322 359 20 352 89 115 115 92 65 101 107 117 343 117 132 153 170 187 200 200 189 204 212 183 170 178 196 210 215 215 212 214 215 218 256 288 269 241 230 222
267 326 313 310 302 329 339 339 359 63 82 109 92 68 63 54 38 39 258 221 195 187 197 195 204 229 231 197 185 196 201 214 219 223 222 220 221 222 220 227 251 269 256 237
285 253 243 277 315 339 344 355 4 12 61 52 88 90 84 76 26 302 294 276 114 104 245 209 227 253 243 192 190 202 209 221 223 229 228 223 220 220 223 224 229 239 253 254
259 266 264 265 295 324 351 354 330 261 178 140 93 75 83 115 334 309 319 36 124 197 261 260 258 262 250 204 202 207 219 239 236 224 227 229 216 210 217 224 229 226 225 223
232 252 268 266 282 283 267 261 257 256 154 143 154 155 115 57 6 335 314 297 223 225 234 248 267 275 255 221 211 212 219 238 242 232 222 218 218 219 218 218 226 229 230 219
226 225 216 196 166 205 226 245 300 330 115 155 145 138 145 174 267 285 279 289 315 305 278 254 255 264 255 238 215 205 212 225 229 235 229 223 231 230 228 230 230 230 241 239
267 254 234 207 171 170 174 202 274 318 333 36 70 59 270 254 251 262 261 254 264 274 277 270 252 240 245 248 222 198 203 213 231 243 230 230 238 242 232 233 238 237 235 232
329 284 238 211 158 141 163 204 262 334 312 314 325 306 291 276 261 265 263 255 248 247 254 258 243 236 235 245 225 204 209 215 225 240 232 231 232 239 239 236 238 245 247 237
22 13 4 61 114 112 190 203 186 217 260 261 241 255 261 267 265 257 246 268 272 264 254 247 232 232 230 238 229 223 219 222 226 229 223 226 232 236 242 246 245 247 247 241
6 23 21 30 45 2 279 246 230 231 260 290 297 287 282 279 282 284 262 250 259 261 249 247 240 239 237 231 221 221 219 220 231 237 234 230 226 227 235 241 248 258 252 242
244 293 319 300 280 283 297 284 258 241 244 253 263 275 277 267 261 252 270 270 266 259 239 244 259 249 229 209 210 214 222 228 233 235 237 239 231 216 214 227 236 249 247 239
197 276 249 241 292 344 309 296 285 274 264 262 254 259 258 265 280 260 242 266 278 261 235 252 267 268 239 203 192 214 235 240 238 235 229 222 208 189 184 192 212 56 40 24
299 307 313 352 306 267 269 282 304 312 316 313 301 301 286 241 239 257 252 247 254 253 257 284 294 293 250 189 185 197 223 238 242 233 222 218 208 169 164 146 141 108 92 71
261 281 263 244 238 245 254 264 280 294 326 333 326 328 328 330 332 327 316 312 336 295 280 298 327 356 307 232 214 215 229 253 220 186 173 132 114 133 133 122 99 82 71 57
291 305 306 310 303 277 253 187 181 231 245 252 298 317 338 2 17 16 13 12 24 27 3 6 41 83 66 354 296 280 269 224 182 182 68 65 94 119 93 87 88 68 66 67